When you browse on this site, cookies collect data to enhance your experience and personalize the content and advertising you see.
Visit our Privacy Policy to learn more. By continuing to use the site, you agree to this use of cookies and data.
  • In Czech Republic
  • List of Countries
  • For 7 days
  • Water Temperature
  • Satellite Maps
  • Weather Map
  • Weather Widgets
  • user-avatar
    Login

    Hourly Weather Bishkek

    Today, 20 June, Thursday

    Time Temperature Precipitation Wind Pressure Humidity
    00:00 -5°C° 0 mm 3 mps 486 mmHg 80%
    01:00 -5°C° 0 mm 3 mps 486 mmHg 80%
    02:00 -5°C° 0 mm 3 mps 485 mmHg 80%
    03:00 -5°C° 0 mm 3 mps 485 mmHg 81%
    04:00 -5°C° 0 mm 3 mps 486 mmHg 81%
    05:00 -5°C° 0 mm 4 mps 486 mmHg 81%
    06:00 -2°C° 0 mm 3 mps 487 mmHg 78%
    07:00 +1°C° 0 mm 2 mps 488 mmHg 74%
    08:00 +3°C° 0 mm 1 mps 489 mmHg 71%
    09:00 +4°C° 0.1 mm 1 mps 490 mmHg 66%
    10:00 +4°C° 0.1 mm 2 mps 490 mmHg 61%
    11:00 +5°C° 0.1 mm 2 mps 490 mmHg 57%
    12:00 +5°C° 0.5 mm 2 mps 490 mmHg 58%
    13:00 +6°C° 0.5 mm 2 mps 490 mmHg 59%
    14:00 +6°C° 0.5 mm 2 mps 491 mmHg 60%
    15:00 +6°C° 0.4 mm 2 mps 490 mmHg 60%
    16:00 +6°C° 0.4 mm 2 mps 490 mmHg 61%
    17:00 +5°C° 0.4 mm 3 mps 490 mmHg 61%
    18:00 +4°C° 0.1 mm 2 mps 489 mmHg 65%
    19:00 +2°C° 0.1 mm 2 mps 488 mmHg 69%
    20:00 +1°C° 0.1 mm 1 mps 487 mmHg 73%
    21:00 -1°C° 0 mm 2 mps 486 mmHg 72%
    22:00 -2°C° 0 mm 2 mps 486 mmHg 70%
    23:00 -2°C° 0 mm 2 mps 486 mmHg 68%

    Tomorrow, 21 June, Friday

    Time Temperature Precipitation Wind Pressure Humidity
    00:00 -2°C° 0 mm 3 mps 486 mmHg 69%
    01:00 -2°C° 0 mm 3 mps 486 mmHg 70%
    02:00 -2°C° 0 mm 3 mps 486 mmHg 71%
    03:00 -2°C° 0 mm 3 mps 486 mmHg 72%
    04:00 -2°C° 0 mm 3 mps 486 mmHg 72%
    05:00 -2°C° 0 mm 3 mps 486 mmHg 73%
    06:00 +2°C° 0 mm 2 mps 488 mmHg 66%
    07:00 +4°C° 0 mm 2 mps 489 mmHg 58%
    08:00 +7°C° 0 mm 1 mps 491 mmHg 51%
    09:00 +8°C° 0 mm 1 mps 491 mmHg 49%
    10:00 +9°C° 0 mm 1 mps 492 mmHg 47%
    11:00 +10°C° 0 mm 1 mps 492 mmHg 46%
    12:00 +9°C° 0.3 mm 2 mps 492 mmHg 46%
    13:00 +9°C° 0.3 mm 2 mps 492 mmHg 47%
    14:00 +9°C° 0.3 mm 2 mps 492 mmHg 48%
    15:00 +9°C° 0.8 mm 2 mps 492 mmHg 51%
    16:00 +9°C° 0.8 mm 2 mps 491 mmHg 54%
    17:00 +8°C° 0.8 mm 3 mps 491 mmHg 57%
    18:00 +5°C° 0.6 mm 3 mps 490 mmHg 63%
    19:00 +3°C° 0.6 mm 3 mps 489 mmHg 70%
    20:00 +2°C° 0.6 mm 3 mps 488 mmHg 76%
    21:00 +1°C° 0.1 mm 3 mps 487 mmHg 74%
    22:00 +1°C° 0.1 mm 3 mps 487 mmHg 72%
    23:00 0°C° 0.1 mm 3 mps 487 mmHg 71%

    Day after tomorrow, 22 June, Saturday

    Time Temperature Precipitation Wind Pressure Humidity
    00:00 0°C° 0 mm 3 mps 487 mmHg 71%
    01:00 0°C° 0 mm 3 mps 487 mmHg 70%
    02:00 -1°C° 0 mm 4 mps 486 mmHg 70%
    03:00 0°C° 0 mm 3 mps 487 mmHg 70%
    04:00 +1°C° 0 mm 3 mps 487 mmHg 69%
    05:00 +1°C° 0 mm 3 mps 488 mmHg 69%
    06:00 +1°C° 0.6 mm 3 mps 488 mmHg 72%
    07:00 +1°C° 0.6 mm 3 mps 489 mmHg 75%
    08:00 +2°C° 0.6 mm 3 mps 489 mmHg 78%
    09:00 +3°C° 0.5 mm 2 mps 490 mmHg 75%
    10:00 +4°C° 0.5 mm 2 mps 490 mmHg 73%
    11:00 +6°C° 0.5 mm 1 mps 491 mmHg 71%
    12:00 +4°C° 1.6 mm 2 mps 490 mmHg 72%
    13:00 +4°C° 1.6 mm 2 mps 490 mmHg 74%
    14:00 +3°C° 1.6 mm 2 mps 489 mmHg 76%
    15:00 +4°C° 0.4 mm 2 mps 490 mmHg 73%
    16:00 +4°C° 0.4 mm 2 mps 490 mmHg 70%
    17:00 +5°C° 0.4 mm 2 mps 490 mmHg 67%
    18:00 +4°C° 0 mm 1 mps 490 mmHg 67%
    19:00 +3°C° 0 mm 1 mps 489 mmHg 67%
    20:00 +2°C° 0 mm 1 mps 489 mmHg 67%
    21:00 +1°C° 0 mm 1 mps 488 mmHg 66%
    22:00 +1°C° 0 mm 1 mps 488 mmHg 64%
    23:00 -1°C° 0 mm 2 mps 488 mmHg 63%

    23 June, Sunday

    Time Temperature Precipitation Wind Pressure Humidity
    00:00 -1°C° 0 mm 2 mps 488 mmHg 63%
    01:00 -1°C° 0 mm 2 mps 488 mmHg 63%
    02:00 +1°C° 0 mm 1 mps 488 mmHg 63%
    03:00 -2°C° 0 mm 2 mps 488 mmHg 64%
    04:00 -2°C° 0 mm 2 mps 488 mmHg 65%
    05:00 -2°C° 0 mm 2 mps 488 mmHg 66%
    06:00 +2°C° 0 mm 1 mps 489 mmHg 62%
    07:00 +4°C° 0 mm 1 mps 491 mmHg 58%
    08:00 +6°C° 0 mm 1 mps 492 mmHg 55%
    09:00 +5°C° 0.1 mm 2 mps 492 mmHg 53%
    10:00 +6°C° 0.1 mm 2 mps 493 mmHg 52%
    11:00 +7°C° 0.1 mm 3 mps 493 mmHg 50%
    12:00 +7°C° 0.1 mm 3 mps 493 mmHg 50%
    13:00 +7°C° 0.1 mm 3 mps 493 mmHg 50%
    14:00 +7°C° 0.1 mm 3 mps 493 mmHg 49%
    15:00 +7°C° 0 mm 3 mps 493 mmHg 49%
    16:00 +7°C° 0 mm 3 mps 493 mmHg 49%
    17:00 +5°C° 0 mm 3 mps 493 mmHg 49%
    18:00 +4°C° 0 mm 2 mps 491 mmHg 56%
    19:00 +2°C° 0 mm 2 mps 490 mmHg 63%
    20:00 +1°C° 0 mm 1 mps 489 mmHg 70%
    21:00 +1°C° 0 mm 1 mps 488 mmHg 70%
    22:00 -2°C° 0 mm 2 mps 488 mmHg 70%
    23:00 -2°C° 0 mm 2 mps 488 mmHg 70%

    24 June, Monday

    Time Temperature Precipitation Wind Pressure Humidity
    00:00 -3°C° 0 mm 2 mps 488 mmHg 67%
    01:00 -3°C° 0 mm 2 mps 487 mmHg 64%
    02:00 -3°C° 0 mm 2 mps 487 mmHg 61%
    03:00 -1°C° 0 mm 1 mps 487 mmHg 58%
    04:00 -1°C° 0 mm 1 mps 487 mmHg 56%
    05:00 -1°C° 0 mm 1 mps 487 mmHg 53%
    06:00 +1°C° 0 mm 1 mps 489 mmHg 48%
    07:00 +4°C° 0 mm 1 mps 491 mmHg 43%
    08:00 +6°C° 0 mm 1 mps 492 mmHg 38%
    09:00 +7°C° 0 mm 1 mps 493 mmHg 40%
    10:00 +7°C° 0 mm 2 mps 493 mmHg 42%
    11:00 +8°C° 0 mm 2 mps 493 mmHg 44%
    12:00 +8°C° 0.1 mm 2 mps 493 mmHg 49%
    13:00 +8°C° 0.1 mm 3 mps 493 mmHg 53%
    14:00 +8°C° 0.1 mm 3 mps 493 mmHg 58%
    15:00 +7°C° 0.3 mm 3 mps 493 mmHg 57%
    16:00 +7°C° 0.3 mm 2 mps 492 mmHg 56%
    17:00 +7°C° 0.3 mm 2 mps 492 mmHg 55%
    18:00 +5°C° 0 mm 2 mps 491 mmHg 59%
    19:00 +4°C° 0 mm 1 mps 490 mmHg 63%
    20:00 +2°C° 0 mm 1 mps 489 mmHg 67%
    21:00 +2°C° 0 mm 1 mps 489 mmHg 66%
    22:00 +1°C° 0 mm 1 mps 488 mmHg 65%
    23:00 +1°C° 0 mm 1 mps 488 mmHg 64%

    25 June, Tuesday

    Time Temperature Precipitation Wind Pressure Humidity
    00:00 +1°C° 0 mm 1 mps 488 mmHg 63%
    01:00 +1°C° 0 mm 1 mps 487 mmHg 62%
    02:00 0°C° 0 mm 1 mps 487 mmHg 61%
    03:00 0°C° 0 mm 1 mps 487 mmHg 62%
    04:00 +1°C° 0 mm 1 mps 487 mmHg 62%
    05:00 +1°C° 0 mm 1 mps 487 mmHg 63%
    06:00 +3°C° 0 mm 1 mps 489 mmHg 59%
    07:00 +5°C° 0 mm 1 mps 490 mmHg 54%
    08:00 +6°C° 0 mm 0 mps 492 mmHg 50%
    09:00 +8°C° 0.4 mm 1 mps 492 mmHg 50%
    10:00 +9°C° 0.4 mm 1 mps 493 mmHg 50%
    11:00 +8°C° 0.4 mm 2 mps 493 mmHg 50%
    12:00 +8°C° 0.9 mm 2 mps 493 mmHg 51%
    13:00 +9°C° 0.9 mm 2 mps 492 mmHg 52%
    14:00 +9°C° 0.9 mm 2 mps 492 mmHg 52%
    15:00 +8°C° 0.4 mm 2 mps 492 mmHg 52%
    16:00 +8°C° 0.4 mm 2 mps 492 mmHg 52%
    17:00 +8°C° 0.4 mm 2 mps 492 mmHg 52%
    18:00 +6°C° 0 mm 2 mps 490 mmHg 58%
    19:00 +5°C° 0 mm 1 mps 489 mmHg 63%
    20:00 +3°C° 0 mm 1 mps 488 mmHg 68%
    21:00 +2°C° 0 mm 1 mps 488 mmHg 68%
    22:00 +2°C° 0 mm 1 mps 487 mmHg 67%
    23:00 -1°C° 0 mm 2 mps 487 mmHg 67%
    Show more